Regional Weather Roundup
Issued by NWS

Home | Current Version | Previous Version | Text Only | Print | Product List | Glossary Off
Versions: 1 2 3 4 5 6 7 8 9 10 11 12 13 14 15 16 17 18 19 20 21 22 23 24 25 26 27 28 29 30 31 32 33 34 35 36 37 38 39 40 41 42 43 44 45 46 47 48 49 50

580
ASUS43 KDMX 211206
RWRIA

WEATHER ROUNDUP FOR IOWA
NATIONAL WEATHER SERVICE DES MOINES IA
600 AM CST SUN JAN 21 2018

NOTE: "FAIR" INDICATES FEW OR NO CLOUDS BELOW 12,000 FEET WITH NO
SIGNIFICANT WEATHER AND/OR OBSTRUCTIONS TO VISIBILITY.

* - THESE STATIONS ARE NOT NWS STATIONS...THUS NOT UNDER NWS
QUALITY CONTROL.  THEY ALSO DO NOT REPORT WEATHER SUCH
AS PRECIPITATION OR FOG.

IAZ001>003-012>014-020>022-031>034-043>046-211300-
   NORTHWEST IOWA

CITY           SKY/WX    TMP DP  RH WIND       PRES   REMARKS
CARROLL *      CLOUDY    34  34 100 NE7       29.87S FOG     WCI  28
CHEROKEE *     CLOUDY    31  30  97 N8        29.89S WCI  23
DENISON *      CLOUDY    36  36 100 E5        29.87S FOG     WCI  32
LE MARS *      CLOUDY    28  27  93 N10       29.89S WCI  19
ORANGE CITY *  CLOUDY    32  28  86 NE7       29.90R WCI  26
SHELDON *      CLOUDY    30  28  93 NE9       29.89S WCI  22
SIOUX CITY     CLOUDY    33  29  85 E7        29.89R WCI  27
6HR MIN TEMP:  27; 6HR MAX TEMP:  37;

SPENCER        CLOUDY    29  26  89 NE3       29.91R
6HR MIN TEMP:  26; 6HR MAX TEMP:  33;

STORM LAKE *   CLOUDY    30  30 100 NE12      29.88R WCI  21
$$

IAZ055>058-069>071-079>083-090>094-211300-
   SOUTHWEST IOWA

CITY           SKY/WX    TMP DP  RH WIND       PRES   REMARKS
ATLANTIC *     CLOUDY    39  39 100 NE6       29.84S FOG     WCI  35
AUDUBON *      CLOUDY    37  34  87 NE6       29.86S FOG     WCI  33
CLARINDA *     CLOUDY    43  43 100 CALM        N/A
COUNCIL BLFS * CLOUDY    39  39 100 NE8       29.82S FOG     WCI  34
CRESTON *      CLOUDY    39  39 100 E9        29.83F FOG     WCI  33
HARLAN  *      CLOUDY    37  37 100 N5        29.87S WCI  34
LAMONI         CLOUDY    42  40  92 E5        29.82F FOG
6HR MIN TEMP:  42; 6HR MAX TEMP:  44;

RED OAK *      CLOUDY    41  39  93 NE6       29.82S
SHENANDOAH *   CLOUDY    41  41 100 NE8       29.81S FOG
$$

IAZ047>049-059>061-072>074-084-211300-
   CENTRAL IOWA

CITY           SKY/WX    TMP DP  RH WIND       PRES   REMARKS
AMES           CLOUDY    36  36 100 NE3       29.88F FOG
6HR MIN TEMP:  35; 6HR MAX TEMP:  37;

ANKENY *       CLOUDY    37  37 100 NE7       29.88S FOG     WCI  32
BOONE *        CLOUDY    36  36 100 NE8       29.87R FOG     WCI  29
CHARITON *     CLOUDY    41  39  93 E6        29.84F
DES MOINES     CLOUDY    40  38  93 VRB6      29.86F FOG
6HR MIN TEMP:  39; 6HR MAX TEMP:  41; 6HR PCP: TRACE;

GRINNELL*      CLOUDY    37  36  96 NE7       29.88F FOG     WCI  31
KNOXVILLE *    CLOUDY    39  37  93 E7        29.85S FOG     WCI  34
MARSHALLTOWN   CLOUDY    36  36 100 E6        29.88F FOG     WCI  31
6HR MIN TEMP:  35; 6HR MAX TEMP:  37;

NEWTON *       CLOUDY    37  37 100 NE8       29.87F FOG     WCI  31
PELLA *        CLOUDY    41  39  92 E5        29.88S
PERRY *        CLOUDY    38  37  96 NE3       29.87S FOG
$$

IAZ004>006-015-016-023>025-035-036-211300-
   NORTH CENTRAL IOWA

CITY           SKY/WX    TMP DP  RH WIND       PRES   REMARKS
ALGONA *       CLOUDY    30 N/A N/A N10       29.89F WCI  21
CLARION *      CLOUDY    28  28 100 NE8       29.90S FOG     WCI  20
ESTHERVILLE    CLOUDY    27  26  96 N9        29.91S WCI  18
6HR MIN TEMP:  26; 6HR MAX TEMP:  30;

MASON CITY     CLOUDY    25  23  92 NE3       29.92S FOG
6HR MIN TEMP:  24; 6HR MAX TEMP:  29;

FOREST CITY *    N/A     32  32 100 NE8       29.90S WCI  25
WEBSTER CITY * CLOUDY    34  34 100 NE5       29.87S FOG     WCI  30
IOWA FALLS *   CLOUDY    36  35  96 NE5       29.90S FOG     WCI  32
$$

IAZ007>011-017>019-026>030-037>042-050>054-066-211300-
   NORTHEAST IOWA

CITY           SKY/WX    TMP DP  RH WIND       PRES   REMARKS
CEDAR RAPIDS   CLOUDY    39  36  89 E8        29.88F FOG     WCI  33
6HR MIN TEMP:  37; 6HR MAX TEMP:  39;

CHARLES CITY * FOG       28  28 100 CALM      29.93R VSB<1/4
CLINTON *      CLOUDY    37  36  96 E7        29.94S FOG     WCI  32
DECORAH *      FOG       27  27 100 SE5       29.92R VSB<1/4 WCI  21
DUBUQUE        CLOUDY    34  32  92 NE6       29.93R FOG     WCI  29
6HR MIN TEMP:  32; 6HR MAX TEMP:  38;

MONTICELLO *   CLOUDY    36  34  93 CALM      29.92S FOG
OELWEIN *      CLOUDY    34  34 100 E6        29.91F FOG     WCI  29
WATERLOO       CLOUDY    33  32  96 NE5       29.91F FOG     WCI  29
6HR MIN TEMP:  25; 6HR MAX TEMP:  33;

$$

IAZ064-065-067-068-078-211300-
   EAST CENTRAL IOWA

CITY           SKY/WX    TMP DP  RH WIND       PRES   REMARKS
DAVENPORT      CLOUDY    41  37  86 E8        29.93F
6HR MIN TEMP:  40; 6HR MAX TEMP:  42;

IOWA CITY      CLOUDY    42  38  85 CALM      29.91F
6HR MIN TEMP:  38; 6HR MAX TEMP:  42;

MT. PLEASANT * CLOUDY    41  37  87 S6        29.90S
MUSCATINE *    CLOUDY    39  36  87 E3        29.91F
QUAD CITIES    CLOUDY    41  37  86 E8        29.91F
6HR MIN TEMP:  39; 6HR MAX TEMP:  41;

$$

IAZ062-063-075>077-085>089-095>099-211300-
   SOUTHEAST IOWA

CITY           SKY/WX    TMP DP  RH WIND       PRES   REMARKS
BURLINGTON     CLOUDY    41  37  86 SE5       29.90F
6HR MIN TEMP:  40; 6HR MAX TEMP:  44;

FAIRFIELD *    CLOUDY    39  37  93 SE3       29.88S
FORT MADISON * CLOUDY    43  39  87 SE5       29.91S
KEOKUK *       CLOUDY    43  39  87 SE5       29.90R
OSKALOOSA *    CLOUDY    39  38  94 E7        29.88S WCI  34
OTTUMWA        CLOUDY    40  38  93 E5        29.87S
6HR MIN TEMP:  40; 6HR MAX TEMP:  42;

WASHINGTON *   CLOUDY    39  39 100 E6        29.90F FOG     WCI  35
$$

ABBREVIATIONS USED IN REMARKS
   TC - TEMPERATURES IN CELSIUS
  WCI - WIND CHILL INDEX
   HX - HEAT INDEX
  VSB - VISIBILITY
$$





USA.gov is the U.S. government's official web portal to all federal, state and local government web resources and services.